Home   Weather   Schwechat   Past weeks

Flag for Austria Past Weather in Schwechat, Lower Austria, Austria — Yesterday and Last 2 Weeks

Now
25 °F

Passing clouds.


Feels Like: 15 °F
Forecast: 13 / 24 °F
Wind: 10 mph from Northwest

Location: Vienna Schwechat-Flughafen Airport

Current Time: Jan 18, 2017 at 5:32:48 am

Latest Report: Jan 18, 2017 at 4:50 am


Visibility: N/A

Pressure: 30.51 "Hg

Humidity: 80%

Dew Point: 19 °F

Location of SchwechatLocation

Past Weather in Schwechat — Graph

°F

Schwechat Temperature Yesterday

Maximum temperature yesterday: 32 °F (at 2:20 pm)
Minimum temperature yesterday: 25 °F (at 12:20 am)
Average temperature yesterday: 27 °F

High & Low Weather Summary for the Past Weeks

 TemperatureHumidityPressure
High45 °F (Jan 12, 1:50 pm)100% (Jan 12, 3:50 am)30.60 "Hg (Jan 12, 3:50 am)
Low7 °F (Jan 7, 4:50 am)42% (Jan 4, 3:20 am)29.42 "Hg (Jan 13, 4:50 am)
Average27 °F72%30.09 "Hg
* Reported Jan 3 4:20 am — Jan 18 4:20 am, Schwechat, Weather by CustomWeather, © 2017

Note: Actual official high and low records may vary slightly from our data, if they occured in-between our weather recording intervals... More about our weather records

Advertising

Schwechat Weather History for the Previous 24 Hours

Scroll right to see more
 ConditionsComfort  
Time TempWeatherWind HumidityBarometerVisibility
4:20 am
Wed, Jan 18
25 °FPassing clouds.12 mph80%30.51 "HgN/A
3:50 am25 °FClear.10 mph80%30.51 "Hg10 mi
3:20 am25 °FClear.12 mph74%30.51 "Hg10 mi
2:50 am25 °FClear.12 mph74%30.51 "Hg10 mi
2:20 am25 °FPassing clouds.12 mph74%30.51 "HgN/A
1:50 am25 °FPassing clouds.10 mph74%30.51 "HgN/A
1:20 am25 °FPassing clouds.12 mph80%30.51 "HgN/A
12:50 am25 °FPassing clouds.12 mph74%30.51 "HgN/A
12:20 am25 °FPassing clouds.13 mph80%30.51 "HgN/A
11:50 pm
Tue, Jan 17
25 °FPassing clouds.13 mph80%30.51 "HgN/A
11:20 pm27 °FClear.12 mph74%30.51 "Hg10 mi
10:50 pm27 °FClear.13 mph74%30.48 "Hg10 mi
10:20 pm27 °FClear.13 mph74%30.51 "Hg10 mi
9:50 pm27 °FClear.13 mph74%30.48 "Hg10 mi
9:20 pm27 °FClear.12 mph74%30.48 "Hg10 mi
8:50 pm27 °FClear.12 mph74%30.48 "Hg10 mi
8:20 pm27 °FClear.12 mph74%30.48 "Hg10 mi
7:50 pm27 °FClear.13 mph74%30.45 "Hg10 mi
7:20 pm27 °FClear.12 mph74%30.45 "Hg10 mi
6:50 pm27 °FPassing clouds.13 mph80%30.45 "HgN/A
6:20 pm27 °FPassing clouds.14 mph80%30.45 "HgN/A
5:50 pm28 °FPassing clouds.14 mph74%30.42 "HgN/A
5:20 pm27 °FPassing clouds.12 mph80%30.42 "HgN/A
4:50 pm28 °FPartly cloudy.13 mph74%30.42 "HgN/A
4:20 pm28 °FPartly sunny.13 mph74%30.42 "HgN/A
3:50 pm30 °FBroken clouds.14 mph69%30.42 "HgN/A
3:20 pm30 °FPartly sunny.14 mph69%30.39 "HgN/A
2:50 pm30 °FPartly sunny.14 mph69%30.39 "HgN/A
2:20 pm32 °FPartly sunny.16 mph64%30.39 "HgN/A
1:50 pm30 °FPartly sunny.14 mph75%30.39 "HgN/A
1:20 pm30 °FBroken clouds.12 mph75%30.39 "HgN/A
12:50 pm30 °FPartly sunny.13 mph69%30.39 "HgN/A
12:20 pm30 °FPartly sunny.16 mph69%30.39 "HgN/A
11:50 am30 °FPartly sunny.15 mph69%30.39 "HgN/A
11:20 am28 °FPartly sunny.17 mph74%30.39 "HgN/A
10:50 am28 °FPartly sunny.16 mph74%30.39 "HgN/A
10:20 am28 °FPartly sunny.14 mph74%30.39 "HgN/A
9:50 am28 °FPartly sunny.15 mph74%30.39 "HgN/A
9:20 am27 °FPartly sunny.15 mph80%30.36 "HgN/A
8:50 am27 °FPartly sunny.14 mph80%30.36 "HgN/A
8:20 am27 °FBroken clouds.14 mph80%30.36 "HgN/A
7:50 am27 °FPartly sunny.13 mph80%30.36 "HgN/A
7:20 am27 °FPassing clouds.12 mph80%30.33 "HgN/A
6:50 am27 °FPartly cloudy.12 mph80%30.33 "HgN/A
6:20 am25 °FPassing clouds.12 mph86%30.30 "HgN/A
5:50 am27 °FClear.12 mph80%30.30 "Hg10 mi
5:20 am27 °FClear.13 mph80%30.30 "Hg10 mi
Weather by CustomWeather, © 2017

See weather overviewHow to use our weather pages